FW4213 Weather Reports


Display with metric or nautical units.
time (UTC)temp
F
wind
direction
speed
MPH
gust
MPH
rain 1hr
in
rain 24hr
in
rain mn
in
humidity
%
barometer
mb
20260903061531 53 225 1.0 2.0 0.00 0.23 0.23 96 1011.7
20260903060035 53 195 0.0 3.0 0.00 0.23 0.23 96 1011.6
20260903054531 53 156 1.0 3.0 0.00 0.23 0.23 96 1011.6
20260903053032 54 157 0.0 0.0 0.00 0.23 0.23 96 1011.5
20260903051533 54 169 1.0 3.0 0.00 0.23 0.23 95 1011.5
20260903044536 55 225 0.0 1.0 0.00 0.23 0.23 95 1011.3
20260903043029 55 225 0.0 1.0 0.00 0.23 0.23 95 1011.2
20260903041535 56 225 0.0 2.0 0.00 0.23 0.23 95 1010.9
20260903040105 56 225 1.0 2.0 0.01 0.23 0.23 95 1010.7
20260903034531 56 244 1.0 2.0 0.03 0.23 0.23 96 1010.5
20260903033031 56 286 1.0 3.0 0.07 0.23 0.23 96 1010.3
20260903031531 56 292 0.0 3.0 0.10 0.23 0.22 96 1010.3
20260903021530 59 315 1.0 4.0 0.02 0.13 0.11 96 1009.9
20260903014530 59 337 0.0 2.0 0.01 0.11 0.11 94 1009.5
20260903013031 59 337 0.0 0.0 0.01 0.11 0.11 94 1009.6
20260903011533 59 337 0.0 2.0 0.02 0.11 0.10 93 1009.5
20260903010034 60 348 2.0 4.0 0.01 0.10 0.10 91 1009.7
20260903004537 60 156 0.0 2.0 0.01 0.10 0.10 91 1009.8
20260903003107 60 157 0.0 0.0 0.01 0.10 0.09 90 1009.7
20260903001534 60 157 0.0 0.0 0.00 0.09 0.09 88 1009.6
20260903000036 60 157 0.0 1.0 0.00 0.09 0.09 89 1009.6
20260902233111 60 198 0.0 2.0 0.01 0.09 0.09 90 1009.8
20260902231605 60 308 0.0 2.0 0.01 0.09 0.09 91 1009.9
20260902230038 60 315 0.0 0.0 0.02 0.09 0.09 92 1009.9
20260902223035 60 315 0.0 0.0 0.02 0.08 0.08 90 1009.8
20260902221533 60 315 0.0 0.0 0.03 0.08 0.07 89 1009.7
20260902220029 60 321 0.0 4.0 0.03 0.07 0.07 88 1009.5
20260902214539 60 20 0.0 2.0 0.04 0.07 0.06 91 1009.5
20260902213038 60 22 0.0 2.0 0.04 0.06 0.05 90 1009.6
20260902210035 61 360 0.0 1.0 0.02 0.04 0.03 83 1010.0
20260902204533 62 360 0.0 1.0 0.02 0.03 0.02 82 1010.0
20260902203033 62 360 0.0 2.0 0.02 0.02 0.02 83 1009.9
20260902200029 63 134 0.0 4.0 0.02 0.02 0.01 77 1009.7
20260902194531 65 161 3.0 6.0 0.01 0.01 0.00 67 1009.8
20260902191536 67 157 0.0 0.0 0.00 0.00 0.00 59 1009.3
20260902190106 67 157 0.0 0.0 0.00 0.00 0.00 57 1009.2
20260902184530 67 304 3.0 7.0 0.00 0.00 0.00 56 1009.1
20260902183037 67 317 3.0 7.0 0.00 0.00 0.00 58 1009.1
20260902181643 66 322 2.0 6.0 0.00 0.00 0.00 58 1009.3
20260902180031 66 352 2.0 6.0 0.00 0.00 0.00 58 1009.3
20260902174642 66 348 6.0 9.0 0.00 0.00 0.00 58 1009.3
20260902173033 66 349 4.0 8.0 0.00 0.00 0.00 59 1009.5
20260902171607 65 335 2.0 7.0 0.00 0.00 0.00 60 1009.7
20260902170030 64 357 2.0 6.0 0.00 0.00 0.00 61 1010.0
20260902164529 66 27 1.0 5.0 0.00 0.00 0.00 59 1010.1
20260902163035 65 115 0.0 2.0 0.00 0.00 0.00 63 1010.4
20260902161536 64 157 1.0 4.0 0.00 0.00 0.00 65 1010.6
20260902160031 63 153 2.0 4.0 0.00 0.00 0.00 68 1010.6
20260902154534 61 157 3.0 4.0 0.00 0.00 0.00 72 1010.9
20260902153034 58 157 2.0 3.0 0.00 0.00 0.00 77 1011.0
20260902151531 57 142 2.0 4.0 0.00 0.00 0.00 78 1011.1
20260902150143 57 149 4.0 7.0 0.00 0.00 0.00 78 1011.4
20260902144531 56 104 1.0 4.0 0.00 0.00 0.00 79 1011.3
20260902143034 55 138 6.0 10.0 0.00 0.00 0.00 79 1011.5
20260902141531 55 143 6.0 9.0 0.00 0.00 0.00 79 1011.5
20260902140106 55 144 7.0 11.0 0.00 0.00 0.00 80 1011.6
20260902134534 55 142 6.0 9.0 0.00 0.00 0.00 80 1011.6
20260902133032 55 150 7.0 11.0 0.00 0.00 0.00 80 1011.8
20260902131535 55 147 7.0 11.0 0.00 0.00 0.00 80 1011.8
20260902124533 55 148 6.0 10.0 0.00 0.00 0.00 78 1011.8
20260902123142 56 157 2.0 5.0 0.00 0.00 0.00 77 1011.8
20260902121531 57 152 4.0 7.0 0.00 0.00 0.00 76 1011.8
20260902114529 57 149 5.0 6.0 0.00 0.00 0.00 75 1011.9
20260902113035 58 169 3.0 5.0 0.00 0.00 0.00 73 1011.9
20260902111535 58 209 1.0 7.0 0.00 0.00 0.00 73 1011.8
20260902110035 59 207 1.0 4.0 0.00 0.00 0.00 73 1011.9
20260902104536 59 230 1.0 4.0 0.00 0.00 0.00 72 1012.1
20260902101530 60 209 2.0 6.0 0.00 0.00 0.00 72 1012.2
20260902093141 59 221 2.0 6.0 0.00 0.00 0.00 73 1012.2
20260902091537 59 223 1.0 3.0 0.00 0.00 0.00 73 1012.4
20260902090037 60 211 1.0 3.0 0.00 0.00 0.00 72 1012.4
20260902084654 60 238 2.0 6.0 0.00 0.00 0.00 72 1012.4
20260902083034 60 217 2.0 6.0 0.00 0.00 0.00 71 1012.4
20260902081531 61 255 2.0 5.0 0.00 0.00 0.00 70 1012.4
20260902080032 61 243 3.0 10.0 0.00 0.00 0.00 70 1012.5
20260902074645 61 252 2.0 7.0 0.00 0.00 0.00 69 1012.5
20260902070030 63 255 4.0 17.0 0.00 0.00 0.00 67 1012.6
20260902064532 63 252 3.0 7.0 0.00 0.00 0.00 66 1012.9
20260902063035 63 253 4.0 13.0 0.00 0.00 0.00 65 1012.7